Location: Armstrong Village
(14.3346°N, 120.9854°E)
Time: 18:24:10
(UTC+00:00)

Cosmos 1707 Rocket - Visible Passes

Search period start: 11 April 2026 00:00
Search period end: 21 April 2026 00:00
Orbit: 598 x 624 km, 82.5° (Epoch: 11 April)

Date Brightness Start Highest point End Pass type
(mag) Time Alt. Az. Time Alt. Az. Time Alt. Az.
11 Apr 5.1 12:10:38 10° NNW 12:14:27 32° W 12:14:38 32° W visible
12 Apr 4.8 10:48:36 10° NE 10:51:42 19° E 10:53:32 15° ESE visible
12 Apr 6.2 12:26:29 10° NW 12:29:06 16° W 12:30:37 14° WSW visible
13 Apr 3.9 11:02:28 10° NNE 11:06:28 40° E 11:09:40 15° SSE visible
14 Apr 3.4 11:16:56 10° N 11:21:13 87° E 11:25:29 10° S visible
15 Apr 4.7 11:31:52 10° NNW 11:35:54 42° W 11:39:58 10° SSW visible
16 Apr 6.0 11:47:23 10° NW 11:50:34 21° W 11:53:46 10° SW visible
18 Apr 3.5 10:38:24 10° N 10:42:38 66° E 10:46:54 10° SSE visible
19 Apr 4.2 10:53:10 10° NNW 10:57:21 56° W 11:01:33 10° S visible
20 Apr 5.8 11:08:26 10° NW 11:12:01 26° W 11:15:38 10° SSW visible
